RH
13 14 15 17 13 13 10 8 7 7 8 6 7 6 6 14 21 16 24 26 27 34 25 22 25 32 26 25 23 20 15 16 20 24 34 23 14 11 11 8 4 4 17 57
15 16 14 15 16 14 13 9 8 9 7 8 7 4 6 8 16 16 20 24 24 22 23 25 31 39 38 34 30 24 19 18 19 29 38 32 18 12 10 10 6 4 5 30
17 16 16 15 18 16 15 13 9 10 7 9 11 5 6 9 7 11 20 32 31 31 35 38 41 43 42 42 39 33 26 15 27 36 36 37 28 15 9 10 9 5 4 10
18 16 17 16 20 17 16 16 10 9 10 17 19 24 5 5 4 5 14 25 34 40 43 44 45 46 48 48 45 42 28 15 35 38 36 34 34 23 14 8 9 7 4 4
20 17 18 18 21 19 19 17 11 9 10 16 26 28 4 5 5 6 11 21 33 42 46 50 53 56 51 45 43 34 18 14 38 45 38 35 32 30 22 11 8 8 6 4
24 18 20 19 21 20 20 17 13 10 11 43 32 27 6 5 6 7 10 14 20 32 53 54 52 45 44 35 22 15 16 27 51 49 44 39 36 31 28 21 9 9 7 4
27 25 21 22 23 23 22 20 18 39 42 43 17 24 7 6 6 8 10 12 28 37 36 19 16 18 20 19 20 25 29 46 54 52 48 43 40 36 29 27 16 8 8 6
32 29 26 27 28 24 25 25 19 27 44 35 20 24 6 6 6 8 11 16 22 20 12 13 16 19 22 27 34 44 54 59 58 53 51 52 45 43 34 29 27 10 8 8
34 32 30 27 32 28 28 29 28 30 48 74 21 13 9 7 7 8 12 19 17 11 10 11 15 21 26 34 50 62 63 61 60 62 66 65 61 45 43 32 29 22 8 9
41 36 33 33 34 35 34 35 31 26 38 45 24 21 12 8 9 11 11 17 12 7 7 10 16 22 37 62 63 66 66 69 71 70 70 68 63 58 43 40 30 28 13 9
48 44 35 39 33 35 37 34 32 37 40 66 73 28 13 10 10 11 12 16 9 6 6 7 14 35 70 63 62 72 82 88 83 74 73 72 66 64 50 44 33 30 22 10
48 46 39 40 42 51 48 40 38 35 45 50 71 42 16 15 10 9 10 8 8 6 7 11 24 69 68 64 79 95 98 89 83 80 78 76 75 70 59 45 39 32 27 15
57 43 44 45 56 58 46 42 44 43 54 56 82 37 22 13 10 4 5 6 7 6 6 13 54 74 74 81 91 97 96 86 83 82 83 80 78 71 67 55 44 35 30 21
62 53 48 44 46 46 46 45 46 50 60 51 35 30 19 10 5 4 5 6 5 5 6 17 71 78 82 92 100 96 94 94 84 88 82 69 78 76 70 58 50 39 32 26
65 61 50 47 50 50 50 48 47 47 39 51 30 32 20 10 7 4 5 6 4 3 6 25 76 78 87 95 100 96 94 92 96 90 88 79 74 79 76 64 53 46 34 29
68 51 55 53 54 56 56 44 36 33 33 40 40 34 21 12 4 4 6 5 3 5 8 40 80 83 88 97 98 91 92 95 89 83 84 86 84 79 79 74 57 51 36 32
61 56 55 52 64 65 46 48 49 46 46 48 44 23 32 18 3 5 5 4 4 6 14 60 84 87 88 96 98 93 93 96 89 90 90 90 86 78 76 78 63 51 38 33
58 56 55 62 76 75 54 50 50 51 59 58 38 35 35 7 4 6 6 4 4 9 19 74 88 89 83 95 96 93 100 97 96 93 94 97 90 84 84 75 63 52 40 33
61 58 62 83 95 74 46 52 56 65 62 43 40 56 14 3 4 5 5 4 6 10 27 80 100 94 82 93 90 98 98 96 88 98 96 97 96 94 91 71 61 50 41 32
70 75 77 92 96 78 57 59 70 81 55 57 68 41 7 3 5 6 5 2 3 9 24 76 97 96 87 87 78 96 83 74 91 96 96 97 90 92 79 72 59 47 41 27
72 75 95 100 95 75 62 73 88 71 65 71 59 24 6 3 6 6 4 2 3 8 16 71 98 96 94 72 68 96 74 67 78 85 93 82 80 74 74 67 53 48 41 25
77 84 90 97 96 80 82 88 96 92 76 67 62 21 5 4 7 7 4 2 2 3 4 37 90 96 95 92 68 78 70 63 68 81 83 70 72 71 70 61 52 49 38 23
93 81 73 77 69 69 74 85 98 84 76 72 54 14 4 4 7 7 4 2 2 4 5 30 93 94 96 95 79 50 62 61 60 70 70 67 59 60 59 55 48 41 34 19
85 90 86 82 60 84 87 91 96 96 84 67 44 12 3 4 7 7 4 2 2 2 3 12 61 97 93 95 99 59 48 50 44 59 64 53 52 46 48 46 38 34 26 14
86 88 80 79 67 76 72 82 94 99 84 65 38 10 4 5 7 6 4 2 2 2 2 9 33 95 96 94 96 84 59 40 40 51 54 46 47 46 43 41 36 26 17 11
71 73 76 78 76 73 62 73 84 97 82 69 38 9 4 6 6 5 3 2 2 2 2 5 14 55 97 95 95 95 98 36 32 39 58 46 39 38 34 32 31 27 18 12
Wind_Speed
8 15 23 29 30 29 26 30 38 40 32 35 32 34 20 12 15 18 16 15 16 16 20 20 24 29 33 34 36 37 36 33 31 31 30 28 26 32 36 38 41 46 50 54
9 15 20 24 29 29 22 29 37 30 33 32 30 22 15 21 20 21 19 15 15 17 20 25 31 35 39 41 42 45 44 42 37 36 31 30 29 30 34 39 39 43 47 60
9 15 20 22 30 30 20 31 36 37 32 24 27 12 15 19 24 24 21 17 17 19 24 30 36 39 43 46 48 50 50 50 38 35 33 31 32 33 33 38 40 42 44 56
7 15 18 23 30 33 22 34 36 28 23 10 20 10 13 25 31 31 25 21 23 27 31 36 40 44 48 52 54 58 59 56 44 37 34 33 35 36 35 37 42 43 44 49
14 13 16 23 31 29 24 36 32 16 17 16 11 7 13 26 30 35 28 27 28 31 34 38 43 47 52 59 64 68 67 57 52 45 38 34 36 38 39 39 42 45 43 47
18 13 13 19 27 23 27 38 15 11 14 2 8 12 13 22 31 31 28 27 28 30 31 36 44 56 63 67 69 65 60 57 53 49 42 39 37 40 43 41 43 46 47 47
20 15 15 18 29 20 22 34 9 7 5 5 14 16 20 24 28 31 34 34 26 30 41 56 59 60 58 57 57 58 58 59 54 49 43 41 39 40 46 46 45 47 51 48
17 10 18 23 27 22 20 24 4 5 3 8 26 10 16 25 30 34 39 37 34 49 54 55 54 53 53 53 56 58 60 61 56 52 46 42 42 42 46 50 48 49 51 52
11 10 19 19 25 16 14 17 9 5 9 4 9 16 34 25 32 40 46 37 49 56 55 53 51 48 50 55 57 60 62 61 58 56 52 49 45 46 48 52 53 52 53 53
19 13 12 21 18 14 13 14 6 5 4 7 10 15 21 24 38 45 48 50 53 56 55 52 50 51 55 57 59 59 58 58 53 55 53 51 47 47 51 53 56 56 56 55
27 18 15 24 12 18 15 11 7 6 5 4 4 23 16 35 49 50 52 55 56 56 54 54 52 54 57 56 58 60 58 53 46 45 45 42 48 45 51 55 59 58 60 58
22 15 20 24 14 15 18 18 14 4 6 12 6 22 27 50 48 53 55 56 57 56 55 54 54 58 58 59 62 61 51 42 40 36 36 35 40 40 49 56 60 60 63 62
27 13 19 12 12 18 23 25 24 20 16 24 6 21 50 46 50 51 56 57 59 58 54 53 55 59 61 63 63 58 43 35 32 30 29 28 31 34 43 53 60 61 64 65
27 19 19 20 30 36 44 42 38 28 15 15 33 51 47 48 52 54 57 60 60 58 54 54 57 60 64 65 61 47 38 30 26 27 28 27 26 30 35 45 56 61 64 67
29 28 27 32 39 33 32 31 31 38 39 32 46 49 48 46 53 56 59 61 60 58 54 56 60 63 65 63 53 43 35 25 24 24 25 26 26 29 32 38 52 59 65 67
36 24 35 38 22 31 44 26 22 26 30 44 44 54 37 48 53 55 56 59 59 58 55 58 59 63 64 59 47 40 31 28 29 28 24 27 31 29 31 34 47 58 65 68
27 25 31 24 34 35 19 24 21 24 31 37 44 36 45 48 52 54 59 58 57 57 55 58 60 63 59 53 45 39 31 28 25 28 27 24 28 29 30 33 43 55 64 68
26 25 23 27 26 4 35 30 24 33 40 45 35 38 50 51 52 54 54 57 55 54 52 55 59 60 50 46 43 38 32 35 26 29 24 24 26 29 30 32 40 52 63 68
20 20 14 10 20 41 18 20 33 42 60 27 28 53 52 53 54 56 57 53 50 49 49 53 55 55 44 42 36 36 33 29 26 23 22 24 26 28 29 30 39 51 64 71
20 23 19 20 8 6 29 33 38 50 38 33 57 53 50 50 55 56 58 54 51 46 46 49 51 51 36 39 34 35 33 26 19 16 16 15 17 21 25 31 42 54 64 72
24 23 27 28 18 20 33 31 38 17 33 56 53 48 47 46 47 54 57 53 50 47 47 46 48 49 34 37 28 32 30 25 19 15 11 2 10 16 23 31 43 54 63 73
26 20 26 16 10 15 36 47 43 49 52 49 49 45 44 44 46 51 54 53 50 49 49 44 45 47 37 31 27 28 27 25 18 13 10 10 6 15 24 34 43 51 63 70
30 29 31 33 37 57 59 54 48 45 46 48 45 42 42 43 45 50 54 53 47 47 45 42 44 46 40 25 29 23 25 25 20 13 14 14 11 14 23 31 40 51 62 66
34 26 39 53 55 54 44 37 41 44 48 46 42 40 40 41 45 48 51 51 47 45 47 41 41 43 40 24 20 25 20 22 21 17 16 13 13 12 17 28 39 47 59 63
53 50 54 51 52 49 47 47 47 47 45 44 40 38 38 39 43 48 50 48 46 44 45 41 38 39 38 31 15 22 19 16 16 17 20 17 12 12 15 23 36 46 52 56
66 58 49 50 49 50 47 48 49 48 42 42 38 36 37 38 42 46 48 46 45 45 43 40 35 35 35 31 17 16 17 11 9 7 17 15 13 13 18 24 31 38 44 50
Wind_Direction
347 359 6 11 9 3 359 346 340 345 337 335 340 344 338 312 308 313 303 292 271 259 262 281 301 303 303 304 307 306 310 312 307 306 292 272 257 250 246 243 237 233 229 228
357 0 2 5 4 1 353 348 338 339 338 333 339 346 346 334 320 314 309 296 276 274 281 292 296 299 304 304 305 307 309 311 309 303 296 279 258 249 244 242 240 236 227 227
355 354 357 356 359 355 352 350 338 331 334 331 337 329 346 359 345 337 320 303 297 295 294 297 298 299 299 298 298 301 306 307 305 300 289 280 265 250 243 239 238 238 228 224
344 344 352 356 356 352 349 346 336 326 329 334 339 296 339 346 355 350 342 322 310 304 303 302 300 296 292 292 297 299 300 304 303 297 288 277 265 251 243 237 234 235 231 222
345 342 351 352 351 351 342 343 332 323 325 320 334 324 334 331 341 347 341 330 319 306 303 300 294 290 290 293 297 302 304 304 303 300 290 276 264 255 243 235 232 229 231 226
355 344 347 341 346 349 348 347 337 338 326 332 337 356 299 332 327 334 340 330 315 310 305 300 293 291 293 296 298 300 300 300 300 296 287 277 265 253 246 235 230 227 226 227
357 342 341 338 345 352 355 2 342 357 354 251 310 311 307 329 326 330 336 337 324 317 306 301 300 301 301 299 297 296 297 296 293 288 282 275 262 253 245 238 228 225 224 223
346 331 337 340 347 343 357 16 56 269 289 295 294 241 316 330 338 333 335 333 322 319 314 310 308 305 303 302 300 301 299 298 295 290 283 272 262 252 242 238 229 222 223 221
333 309 324 336 337 348 346 357 352 274 260 309 276 293 323 335 340 335 333 326 324 319 319 318 314 309 305 303 305 303 301 299 295 290 282 274 263 252 241 233 230 222 220 217
335 311 317 333 329 331 330 344 340 334 350 304 285 285 293 327 335 332 330 326 324 323 323 320 316 313 309 309 306 301 299 297 295 287 282 275 262 249 237 232 226 222 217 215
340 327 316 324 320 314 313 315 323 297 215 195 297 290 306 334 333 327 325 324 325 326 327 322 319 313 311 309 308 309 309 308 301 288 278 267 257 242 233 228 223 219 215 213
336 312 310 316 313 316 310 295 286 263 230 227 241 275 324 327 330 326 325 326 327 331 331 324 319 316 318 317 315 312 313 312 298 285 279 271 255 240 229 222 220 215 214 212
333 314 319 325 324 323 311 307 299 289 262 242 190 288 316 328 327 329 328 329 331 333 330 325 323 323 322 320 318 318 321 311 300 289 278 267 256 241 230 221 215 213 210 210
324 306 299 271 299 302 298 295 291 278 255 252 255 301 335 329 329 335 333 333 333 333 331 329 328 325 326 325 320 328 321 311 297 287 276 269 260 250 239 225 214 210 207 207
316 305 300 306 312 299 301 294 284 269 269 256 297 298 330 324 328 334 335 333 334 336 335 333 332 330 329 324 329 334 326 317 306 292 276 269 261 251 246 230 217 209 204 204
312 302 306 313 320 317 309 307 279 274 275 281 306 305 326 330 330 334 333 334 338 338 339 335 333 331 330 328 333 333 326 315 305 292 282 270 258 246 244 235 218 209 202 201
306 306 311 307 319 320 305 328 311 294 306 305 299 317 326 329 333 337 337 338 341 339 340 336 335 336 332 332 334 331 325 320 311 302 289 270 255 244 238 234 218 208 199 198
299 306 304 296 321 338 314 317 318 311 319 320 315 325 330 329 335 338 339 341 342 341 340 337 338 338 334 336 334 336 326 318 303 308 284 268 259 246 235 226 215 207 198 196
294 292 293 290 304 305 325 325 328 324 324 324 325 331 329 331 334 340 342 342 342 343 341 340 339 339 337 336 334 332 330 319 313 304 288 272 254 240 228 220 213 204 197 193
297 290 267 283 267 269 307 313 323 325 322 331 327 327 327 333 334 339 339 343 345 347 346 342 342 344 339 336 328 336 330 329 328 319 308 271 239 220 214 210 203 196 193 190
289 288 274 271 260 286 307 326 317 323 318 320 320 322 326 330 332 336 338 344 345 350 350 347 348 347 340 339 334 341 337 339 339 341 342 290 190 198 201 194 191 191 189 189
275 280 282 277 248 289 314 313 317 312 315 314 316 317 324 328 334 337 339 343 348 352 353 351 352 351 349 342 342 344 340 350 4 7 39 69 135 179 183 181 185 186 187 190
262 273 278 274 279 294 304 309 313 310 314 314 315 316 325 329 333 338 341 343 351 353 356 353 358 355 351 341 355 354 355 360 19 47 67 87 106 154 168 175 182 183 186 190
278 279 280 299 318 319 320 314 314 313 316 315 315 317 323 328 333 339 342 343 349 356 355 357 360 0 355 351 358 9 3 9 16 56 65 74 99 133 162 171 175 183 186 191
285 284 289 302 317 317 316 317 313 314 315 314 313 315 321 328 333 338 342 343 348 357 356 359 1 4 359 354 344 18 12 26 25 64 75 75 79 119 157 175 175 183 189 193
290 295 290 298 320 308 312 314 312 312 310 312 311 314 320 327 333 338 341 344 348 355 357 359 3 5 7 3 350 26 10 40 41 61 98 98 109 136 155 169 175 183 189 192